TimeEST,TemperatureF,Dew PointF,Humidity,Sea Level PressureIn,VisibilityMPH,Wind Direction,Wind SpeedMPH,Gust SpeedMPH,PrecipitationIn,Events,Conditions,WindDirDegrees,DateUTC
12:53 AM,30.0,12.0,47,30.22,10.0,North,5.8,-,N/A,,Clear,350,2012-12-06 05:53:00
1:53 AM,30.0,12.0,47,30.24,10.0,NNW,8.1,-,N/A,,Clear,330,2012-12-06 06:53:00
2:53 AM,27.0,12.9,56,30.26,10.0,NW,3.5,-,N/A,,Clear,320,2012-12-06 07:53:00
3:53 AM,24.1,12.9,62,30.26,10.0,North,5.8,-,N/A,,Clear,360,2012-12-06 08:53:00
4:53 AM,27.0,14.0,58,30.27,10.0,NNW,9.2,-,N/A,,Clear,340,2012-12-06 09:53:00
5:53 AM,26.1,12.9,58,30.30,10.0,NNW,5.8,-,N/A,,Clear,340,2012-12-06 10:53:00
6:53 AM,21.9,12.9,68,30.32,10.0,NNW,6.9,-,N/A,,Clear,330,2012-12-06 11:53:00
7:53 AM,25.0,15.1,66,30.35,10.0,Calm,Calm,-,N/A,,Clear,0,2012-12-06 12:53:00
8:53 AM,30.0,15.1,54,30.36,10.0,NNW,6.9,-,N/A,,Clear,330,2012-12-06 13:53:00
9:53 AM,33.1,15.1,48,30.36,10.0,NNE,4.6,-,N/A,,Clear,20,2012-12-06 14:53:00
10:53 AM,35.1,15.1,44,30.34,10.0,ENE,4.6,-,N/A,,Clear,60,2012-12-06 15:53:00
11:53 AM,36.0,14.0,41,30.32,10.0,Calm,Calm,-,N/A,,Clear,0,2012-12-06 16:53:00
12:53 PM,39.0,15.1,38,30.30,10.0,Calm,Calm,-,N/A,,Clear,0,2012-12-06 17:53:00
1:53 PM,39.9,15.1,36,30.29,10.0,Calm,Calm,-,N/A,,Clear,0,2012-12-06 18:53:00
2:53 PM,41.0,14.0,33,30.29,10.0,Calm,Calm,-,N/A,,Clear,0,2012-12-06 19:53:00
3:53 PM,39.9,14.0,35,30.29,10.0,Calm,Calm,-,N/A,,Clear,0,2012-12-06 20:53:00
4:53 PM,33.1,18.0,54,30.30,10.0,Calm,Calm,-,N/A,,Clear,0,2012-12-06 21:53:00
5:53 PM,28.9,16.0,58,30.30,10.0,North,3.5,-,N/A,,Clear,360,2012-12-06 22:53:00
6:53 PM,26.1,17.1,69,30.31,10.0,SSW,3.5,-,N/A,,Clear,210,2012-12-06 23:53:00
7:53 PM,25.0,18.0,75,30.31,10.0,Calm,Calm,-,N/A,,Clear,0,2012-12-07 00:53:00
8:53 PM,25.0,17.1,72,30.32,10.0,Calm,Calm,-,N/A,,Clear,0,2012-12-07 01:53:00
9:53 PM,23.0,17.1,78,30.31,10.0,Calm,Calm,-,N/A,,Clear,0,2012-12-07 02:53:00
10:53 PM,21.9,17.1,82,30.31,10.0,Calm,Calm,-,N/A,,Clear,0,2012-12-07 03:53:00
11:53 PM,21.9,17.1,82,30.30,10.0,Calm,Calm,-,N/A,,Clear,0,2012-12-07 04:53:00